www.pogodaiklimat.ru

Погода и климат >> Архив погоды >> Россия >> Краснодарский край >> Лазаревское


ПОГОДА в Лазаревском

  • Прогноз погоды в Лазаревском
  • Монитор погоды в Лазаревском
  • Климат города

АРХИВ ПОГОДЫ в Лазаревском

Время (UTC), дата Ветер
(напр.,м/с)
 
Видим.   Явления Облачность Т
(С)
Тd
(С)
f
(%)
Тe
(С)
Тes
(С)
Комфортность P
(гПа)
Po
(гПа)
Тmin
(С)
Tmax
(С)
R
(мм)
R24
(мм)
S
(см)
00 11.11 Ю 3 н/о н/о +10.1 +4.9 70 +8 +8 1021.1 1019.8
03 11.11 Ю 3 н/о н/о +10.0 +4.3 68 +8 +8 1021.0 1019.7 +9.6
06 11.11 Ю 3 н/о н/о +11.7 +4.3 60 +10 +10 1021.9 1020.6
09 11.11 СЗ 2 н/о н/о +18.0 +7.3 50 +19 +19 1021.4 1020.2
12 11.11 СЗ 3 н/о н/о +16.9 +9.3 61 +17 +17 1021.5 1020.2
15 11.11 Ю 1 н/о н/о +13.8 +8.5 70 +14 +14 1022.0 1020.7 +18.4
18 11.11 Ю 2 н/о н/о +12.3 +5.5 63 +12 +12 1022.2 1020.9
21 11.11 Ю 2 н/о н/о +10.4 +5.1 70 +9 +9 1023.4 1022.2
00 12.11 Ю 2 н/о н/о +9.2 +4.5 72 +8 +8 1023.8 1022.5
03 12.11 ЮЗ 2 н/о н/о +9.3 +5.2 76 +8 +8 1024.2 1022.9 +8.7
06 12.11 ЮЗ 1 н/о н/о +10.4 +6.3 76 +10 +10 1024.7 1023.4
09 12.11 Ю 1 н/о н/о +12.9 +8.3 74 +13 +13 1024.4 1023.1
12 12.11 СЗ 1 н/о н/о +14.0 +8.9 71 +14 +14 1023.6 1022.3
15 12.11 Ю 3 н/о н/о +9.7 +6.0 78 +8 +8 1024.2 1022.9 +15.1
18 12.11 ЮЗ 2 н/о н/о +9.0 +5.4 78 +7 +7 1024.7 1023.4
21 12.11 штиль 0 н/о н/о +8.6 +5.9 83 +8 +8 1025.4 1024.1
00 13.11 штиль 0 н/о н/о +7.8 +4.1 77 +7 +7 1026.0 1024.7
03 13.11 штиль 0 н/о н/о +7.4 +3.7 77 +7 +7 1026.2 1024.9 +7.4
06 13.11 штиль 0 н/о н/о +7.5 +3.3 75 +7 +7 1026.1 1024.8 +7.0
09 13.11 СЗ 1 н/о н/о +7.8 +3.4 74 +7 +7 1025.5 1024.2
12 13.11 Ю 2 н/о н/о +5.8 +4.0 88 +3 +3 1025.2 1023.9
15 13.11 Ю 1 н/о н/о +5.6 +3.6 87 +4 +4 1025.4 1024.1 +8.0 0.8
18 13.11 Ю 1 н/о н/о +6.5 +4.1 85 +5 +5 1025.6 1024.3
21 13.11 Ю 2 н/о н/о +5.9 +3.6 85 +3 +3 1024.8 1023.5
00 14.11 Ю 3 н/о н/о +6.1 +3.4 83 +3 +3 1023.5 1022.2
03 14.11 Ю 3 н/о н/о +6.8 +3.6 80 +4 +4 1022.7 1021.4 +5.6
06 14.11 Ю 3 н/о н/о +8.8 +4.3 73 +6 +6 1022.2 1020.9
09 14.11 З 1 н/о н/о +12.5 +5.2 61 +13 +13 1021.0 1019.7
12 14.11 СЗ 1 н/о н/о +11.8 +4.9 63 +12 +12 1019.4 1018.1
15 14.11 Ю 3 н/о н/о +9.3 +3.7 68 +7 +7 1018.7 1017.4 +12.7
18 14.11 Ю 3 н/о н/о +8.1 +5.3 82 +5 +5 1018.4 1017.1
21 14.11 Ю 5 н/о н/о +8.8 +4.6 75 +5 +5 1016.1 1014.8
00 15.11 Ю 4 н/о н/о +9.1 +4.9 75 +6 +6 1014.4 1013.1
03 15.11 ЮВ 3 н/о н/о +9.2 +5.0 75 +7 +7 1014.4 1013.1 +8.0 0.3
06 15.11 Ю 2 н/о н/о +8.2 +6.2 87 +6 +6 1015.4 1014.1 +8.0
09 15.11 ЮВ 3 н/о н/о +10.1 +7.1 82 +8 +8 1014.8 1013.5
12 15.11 ЮВ 1 н/о н/о +12.3 +6.5 68 +12 +12 1014.7 1013.4
15 15.11 ЮВ 2 н/о н/о +10.8 +6.7 76 +10 +10 1015.4 1014.1 +12.4 4
18 15.11 ЮЗ 3
{10}
н/о н/о +10.8 +6.8 76 +9 +9 1016.7 1015.4
21 15.11 ЮЗ 2
{11}
н/о н/о +10.5 +6.8 78 +9 +9 1017.9 1016.7
00 16.11 ЮЗ 2 н/о н/о +10.0 +7.7 86 +8 +8 1018.6 1017.3
03 16.11 Ю 2 н/о н/о +9.1 +7.0 87 +7 +7 1018.3 1017.0 +9.1 13
06 16.11 Ю 3 н/о н/о +9.6 +6.1 79 +7 +7 1018.9 1017.7 +8.5
09 16.11 Ю 2 н/о н/о +11.6 +6.9 73 +11 +11 1018.9 1017.6
12 16.11 штиль 0 н/о н/о +13.9 +6.8 62 +14 +14 1018.6 1017.3
15 16.11 Ю 3 н/о н/о +10.6 +5.6 71 +9 +9 1018.2 1016.9 +13.9
18 16.11 Ю 4
{11}
н/о н/о +9.3 +4.5 72 +7 +7 1017.8 1016.5

 

Местоположение метеостанции Лазаревское (Краснодарский край, Россия): широта 43.90 долгота 39.33 высота над уровнем моря 11 м.

В архиве по умолчанию представлена погода в Лазаревском за последнюю неделю. Архивные данные за месяц целиком и за предыдущие месяцы, начиная с января 2011 года, Вы можете получить, выбрав интересующий диапазон дат из раскрывающегося списка и нажав кнопку "Ввод!".


*Определитесь, кто Вы:
робот инопланетянин человек

Внимание! Время в таблицах - всемирное. Для получения местного времени необходимо прибавить поправку, которая в Лазаревском равна 3 ч.

Смотрите также архив погоды в соседних городах и на ближайших метеорологических станциях:

Погода в Кичмае (Краснодарский край, Россия) (16 км)
Погода в Магри (Краснодарский край, Россия) (19 км)
Погода в Солох Ауле (Краснодарский край, Россия) (27 км)
Погода в Туапсе (Краснодарский край, Россия) (30 км)
Погода в Горном (Краснодарский край, Россия) (43 км)
Погода в Сочи (Краснодарский край, Россия) (50 км)
Погода в Гузерипле (Адыгея, Россия) (65 км)
Погода в Кепше (Краснодарский край, Россия) (66 км)
Погода в Джубге (Краснодарский край, Россия) (68 км)
Погода в Сочи аэропорту (Адлер) (Краснодарский край, Россия) (70 км)

Пояснения к столбцам:

Ветер - указаны скорость ветра в м/с - средняя за 10 мин, порывы в срок и между сроками (в фигурных скобках) и направление, откуда дует ветер: С - северный, СВ - северо-восточный, В - восточный, ЮВ - юго-восточный, Ю - южный, ЮЗ - юго-западный, З - западный, СЗ - северо-западный.
Видимость - горизонтальная дальность видимости в метрах или километрах. При видимости от 1 до 10 км при отсутствии осадков обычно наблюдается дымка, при ухудшении видимости до 1 км и менее - туман. В сухую погоду видимость может ухудшаться дымом, пылью или мглою.
Явления - указаны атмосферные явления, наблюдавшиеся в срок или в последний час перед сроком; фигурными скобками обозначены явления, наблюдавшиеся между сроками (за 1-3 часа до срока); квадратными скобками обозначены град или гололедные отложения с указанием их диаметра в мм.
Облачность - указаны через наклонную черту общая и нижняя облачность в баллах и высота нижней границы облаков в метрах; квадратными скобками обозначены формы облаков: Ci - перистые, Cs - перисто-слоистые, Cc - перисто-кучевые, Ac - высококучевые, As - высокослоистые, Sc - слоисто-кучевые, Ns - слоисто-дождевые, Cu - кучевые, Cb - кучево-дождевые. Подробнее классификацию облаков см. в Атласе облаков (PDF).
T - Температура воздуха - температура, измеренная на высоте 2 м над землей.
Td - Температура точки росы - температура, при понижении до которой содержащийся в воздухе водяной пар достигнет насыщения.
f - Относительная влажность воздуха - влажноcть воздуха, измеренная на высоте 2 м над землей.
Te - Эффективная температура - температура, которую ощущает одетый по сезону человек в тени. Характеристика душности погоды. При расчете учитывается влияние влажности воздуха и скорости ветра на теплоощущения человека.
Tes - Эффективная температура на солнце - температура, которую ощущает человек, с поправкой на солнечный нагрев. Характеристика знойности погоды. Зависит от высоты солнца над горизонтом, облачности и скорости ветра. Ночью, в пасмурную погоду, а также при ветре 12 м/с и более поправка равна нулю.
P - Атмосферное давление - приведенное к уровню моря атмосферное давление.
Po - Атмосферное давление - измеренное на уровне метеостанции атмосферное давление.
Tmin - Минимальная температура - минимум температуры воздуха на высоте 2 м над землей.
Tmax - Максимальная температура - максимум температуры воздуха на высоте 2 м над землей.
R - Количество осадков - Количество выпавших осадков за период времени, мм. При наведении курсора мыши на число - период времени, за который выпало указанное количество осадков.
R24 - Количество осадков - Количество выпавших осадков за 24 часа, мм.
S - Снежный покров - Высота снежного покрова, см. При наведении курсора мыши на число - состояние снежного покрова и степень покрытия местности в баллах.